K0GDI Weather Reports


Display with metric or nautical units.
time (UTC)temp
F
wind
direction
speed
MPH
gust
MPH
rain 1hr
in
rain 24hr
in
rain mn
in
humidity
%
barometer
mb
20260906044410 76 334 1.0 1.0 0.00 0.00 0.00 79 1013.3
20260906043354 76 232 1.0 1.0 0.00 0.00 0.00 79 1013.3
20260906042338 77 205 1.0 1.0 0.00 0.00 0.00 80 1013.3
20260906041322 77 134 1.0 1.0 0.00 0.00 0.00 79 1013.3
20260906040305 77 222 1.0 1.0 0.00 0.00 0.00 80 1013.3
20260906035249 77 244 1.0 1.0 0.00 0.00 0.00 79 1013.3
20260906033215 77 147 1.0 1.0 0.00 0.00 0.00 79 1013.3
20260906032157 78 208 1.0 1.0 0.00 0.00 0.00 79 1013.3
20260906031141 78 59 1.0 1.0 0.00 0.00 0.00 78 1013.3
20260906030125 78 304 1.0 1.0 0.00 0.00 0.00 76 1013.3
20260906025105 79 252 1.0 2.0 0.00 0.00 0.00 76 1013.3
20260906024048 79 165 1.0 2.0 0.00 0.00 0.00 76 1013.3
20260906023029 79 270 1.0 1.0 0.00 0.00 0.00 73 1013.3
20260906022009 79 132 1.0 1.0 0.00 0.00 0.00 74 1013.3
20260906020950 79 140 1.0 1.0 0.00 0.00 0.00 74 1013.3
20260906015934 80 156 1.0 2.0 0.00 0.00 0.00 73 1013.3
20260906014912 81 185 0.0 1.0 0.00 0.00 0.00 70 1013.3
20260906013853 81 186 1.0 1.0 0.00 0.00 0.00 69 1013.3
20260906012836 82 178 1.0 1.0 0.00 0.00 0.00 68 1013.3
20260906011818 83 235 1.0 1.0 0.00 0.00 0.00 67 1013.3
20260906010802 83 301 1.0 2.0 0.00 0.00 0.00 65 1013.3
20260906005746 84 331 1.0 2.0 0.00 0.00 0.00 64 1013.3
20260906004730 85 289 1.0 2.0 0.00 0.00 0.00 62 1013.3
20260906003713 86 195 1.0 1.0 0.00 0.00 0.00 60 1013.3
20260906002652 87 319 1.0 3.0 0.00 0.00 0.00 58 1013.3
20260906001635 88 28 1.0 2.0 0.00 0.00 0.00 56 1013.3
20260906000616 89 287 1.0 2.0 0.00 0.00 0.00 54 1013.3
20260905235558 90 258 1.0 2.0 0.00 0.00 0.00 51 1013.3
20260905234541 91 203 1.0 2.0 0.00 0.00 0.00 49 1013.3
20260905233525 91 106 1.0 3.0 0.00 0.00 0.00 48 1013.3
20260905232509 92 189 1.0 5.0 0.00 0.00 0.00 48 1013.3
20260905231453 93 213 1.0 2.0 0.00 0.00 0.00 47 1013.3
20260905225423 93 144 5.0 10.0 0.00 0.00 0.00 43 1013.3
20260905224406 94 147 5.0 12.0 0.00 0.00 0.00 42 1013.3
20260905223350 96 130 4.0 12.0 0.00 0.00 0.00 41 1013.3
20260905222334 98 145 1.0 3.0 0.00 0.00 0.00 35 1013.3
20260905221318 98 332 1.0 3.0 0.00 0.00 0.00 37 1013.3
20260905220259 99 316 1.0 3.0 0.00 0.00 0.00 38 1013.3
20260905215243 100 296 1.0 4.0 0.00 0.00 0.00 37 1013.3
20260905214226 101 254 1.0 5.0 0.00 0.00 0.00 35 1013.3
20260905213209 102 343 1.0 5.0 0.00 0.00 0.00 33 1013.3
20260905212153 102 259 1.0 5.0 0.00 0.00 0.00 33 1013.3
20260905211136 103 326 1.0 4.0 0.00 0.00 0.00 33 1013.3
20260905210119 103 319 1.0 4.0 0.00 0.00 0.00 34 1013.3
20260905205102 104 290 1.0 5.0 0.00 0.00 0.00 32 1013.3
20260905204043 104 331 1.0 4.0 0.00 0.00 0.00 31 1013.3
20260905203027 104 339 1.0 3.0 0.00 0.00 0.00 31 1013.3
20260905202011 104 213 2.0 5.0 0.00 0.00 0.00 32 1013.3
20260905195941 103 329 2.0 6.0 0.00 0.00 0.00 32 1013.3
20260905194925 103 22 2.0 6.0 0.00 0.00 0.00 33 1013.3
20260905193908 104 38 2.0 4.0 0.00 0.00 0.00 31 1013.3
20260905192851 104 233 2.0 4.0 0.00 0.00 0.00 31 1013.3
20260905191833 102 41 2.0 5.0 0.00 0.00 0.00 32 1013.3
20260905190817 102 314 1.0 5.0 0.00 0.00 0.00 35 1013.3
20260905185801 103 346 1.0 6.0 0.00 0.00 0.00 33 1013.3
20260905184744 104 352 2.0 5.0 0.00 0.00 0.00 30 1013.3
20260905183728 103 175 2.0 6.0 0.00 0.00 0.00 35 1013.3
20260905182712 104 252 2.0 4.0 0.00 0.00 0.00 32 1013.3
20260905181656 103 263 2.0 5.0 0.00 0.00 0.00 34 1013.3
20260905180640 103 160 1.0 4.0 0.00 0.00 0.00 34 1013.3
20260905175624 103 218 2.0 5.0 0.00 0.00 0.00 37 1013.3
20260905174607 103 209 2.0 6.0 0.00 0.00 0.00 34 1013.3
20260905173550 101 56 2.0 5.0 0.00 0.00 0.00 37 1013.3
20260905172534 102 232 2.0 6.0 0.00 0.00 0.00 38 1013.3
20260905171512 101 209 1.0 3.0 0.00 0.00 0.00 39 1013.3
20260905170456 101 216 2.0 4.0 0.00 0.00 0.00 40 1013.3
20260905165440 101 289 1.0 4.0 0.00 0.00 0.00 38 1013.3
20260905164424 100 237 2.0 5.0 0.00 0.00 0.00 40 1013.3
20260905163407 100 236 2.0 4.0 0.00 0.00 0.00 41 1013.3
20260905162352 100 211 1.0 4.0 0.00 0.00 0.00 40 1013.3
20260905161336 99 225 1.0 3.0 0.00 0.00 0.00 42 1013.3
20260905160319 98 281 2.0 7.0 0.00 0.00 0.00 43 1013.3
20260905155306 99 279 1.0 4.0 0.00 0.00 0.00 43 1013.3
20260905154247 98 275 1.0 4.0 0.00 0.00 0.00 44 1013.3
20260905153229 97 232 1.0 4.0 0.00 0.00 0.00 44 1013.3
20260905151157 95 7 1.0 3.0 0.00 0.00 0.00 48 1013.3
20260905150140 94 327 2.0 6.0 0.00 0.00 0.00 48 1013.3
20260905144110 93 307 2.0 5.0 0.00 0.00 0.00 51 1013.3
20260905142037 92 314 1.0 4.0 0.00 0.00 0.00 52 1013.3
20260905141021 91 220 1.0 4.0 0.00 0.00 0.00 53 1013.3
20260905140005 90 154 1.0 4.0 0.00 0.00 0.00 56 1013.3
20260905134950 89 228 1.0 3.0 0.00 0.00 0.00 56 1013.3
20260905133933 87 184 1.0 2.0 0.00 0.00 0.00 61 1013.3
20260905131901 83 112 1.0 2.0 0.00 0.00 0.00 69 1013.3
20260905130844 82 93 1.0 2.0 0.00 0.00 0.00 73 1013.3
20260905125826 81 60 1.0 3.0 0.00 0.00 0.00 74 1013.3
20260905124807 80 147 1.0 1.0 0.00 0.00 0.00 79 1013.3
20260905123751 78 142 1.0 1.0 0.00 0.00 0.00 83 1013.3
20260905122731 76 157 0.0 1.0 0.00 0.00 0.00 85 1013.3
20260905121712 74 332 1.0 1.0 0.00 0.00 0.00 88 1013.3
20260905120656 73 283 1.0 1.0 0.00 0.00 0.00 92 1013.3
20260905115639 73 189 1.0 1.0 0.00 0.00 0.00 94 1013.3
20260905114622 73 159 1.0 2.0 0.00 0.00 0.00 94 1013.3
20260905113601 73 179 1.0 1.0 0.00 0.00 0.00 93 1013.3
20260905111528 73 180 1.0 1.0 0.00 0.00 0.00 91 1013.3
20260905110510 73 121 1.0 1.0 0.00 0.00 0.00 91 1013.3
20260905105449 74 148 1.0 1.0 0.00 0.00 0.00 92 1013.3
20260905104429 74 154 1.0 1.0 0.00 0.00 0.00 92 1013.3
20260905102357 74 190 1.0 1.0 0.00 0.00 0.00 88 1013.3
20260905101337 74 273 1.0 2.0 0.00 0.00 0.00 88 1013.3
20260905100318 74 308 1.0 2.0 0.00 0.00 0.00 90 1013.3
20260905095259 74 171 1.0 1.0 0.00 0.00 0.00 92 1013.3
20260905094240 74 166 0.0 1.0 0.00 0.00 0.00 91 1013.3
20260905093223 74 178 1.0 1.0 0.00 0.00 0.00 90 1013.3
20260905092201 74 311 1.0 2.0 0.00 0.00 0.00 90 1013.3
20260905091141 74 173 1.0 1.0 0.00 0.00 0.00 90 1013.3
20260905085111 75 135 1.0 1.0 0.00 0.00 0.00 90 1013.3
20260905084054 75 333 1.0 1.0 0.00 0.00 0.00 89 1013.3
20260905083037 75 206 1.0 1.0 0.00 0.00 0.00 91 1013.3
20260905082018 75 159 1.0 1.0 0.00 0.00 0.00 90 1013.3
20260905081001 76 161 1.0 1.0 0.00 0.00 0.00 89 1013.3
20260905075947 76 210 1.0 1.0 0.00 0.00 0.00 87 1013.3
20260905073911 76 169 1.0 1.0 0.00 0.00 0.00 87 1013.3
20260905072856 76 169 1.0 1.0 0.00 0.00 0.00 87 1013.3
20260905071840 76 201 1.0 1.0 0.00 0.00 0.00 87 1013.3
20260905070823 76 183 1.0 1.0 0.00 0.00 0.00 86 1013.3
20260905065807 77 149 1.0 1.0 0.00 0.00 0.00 85 1013.3
20260905064744 77 132 1.0 1.0 0.00 0.00 0.00 85 1013.3
20260905063725 77 187 1.0 1.0 0.00 0.00 0.00 84 1013.3
20260905062705 77 210 1.0 1.0 0.00 0.00 0.00 84 1013.3
20260905061650 77 278 1.0 1.0 0.00 0.00 0.00 84 1013.3
20260905060633 77 339 1.0 1.0 0.00 0.00 0.00 83 1013.3
20260905055615 78 360 1.0 1.0 0.00 0.00 0.00 82 1013.3
20260905053508 79 91 1.0 2.0 0.00 0.00 0.00 80 1013.3
20260905052449 79 106 1.0 1.0 0.00 0.00 0.00 79 1013.3
20260905051431 79 77 1.0 1.0 0.00 0.00 0.00 79 1013.3
20260905050412 80 107 1.0 2.0 0.00 0.00 0.00 79 1013.3
20260905045354 80 198 1.0 1.0 0.00 0.00 0.00 76 1013.3